Location: Mount Graham
(32.7016°N, 109.8912°W)
Time: 18:49:18
(UTC-07:00)

Cosmos 1340 - Visible Passes

Search period start: 01 September 2014 00:00
Search period end: 11 September 2014 00:00
Orbit: 524 x 528 km, 81.2° (Epoch: 01 September)

Date Brightness Start Highest point End Pass type
(mag) Time Alt. Az. Time Alt. Az. Time Alt. Az.
01 Sep 5.7 04:17:49 10° NNE 04:20:33 18° ENE 04:23:16 10° ESE visible
02 Sep 5.8 04:06:13 10° NE 04:08:45 17° ENE 04:11:17 10° ESE visible
03 Sep 5.9 03:54:39 10° NE 03:56:58 15° ENE 03:59:15 10° ESE visible
03 Sep 3.7 05:29:45 10° NW 05:33:00 26° W 05:36:15 10° SSW visible
04 Sep 5.9 03:43:07 10° NE 03:45:09 14° ENE 03:47:11 10° ESE visible
04 Sep 3.6 05:17:52 10° NNW 05:21:15 28° W 05:24:36 10° SSW visible
05 Sep 6.0 03:31:39 10° NE 03:33:21 12° ENE 03:35:02 10° E visible
05 Sep 3.5 05:06:00 10° NNW 05:09:29 31° W 05:12:56 10° SSW visible
06 Sep 6.0 03:20:16 10° NE 03:21:32 11° ENE 03:22:47 10° E visible
06 Sep 3.3 04:54:09 10° NNW 04:57:43 35° W 05:01:15 10° SSW visible
07 Sep 6.1 03:09:16 10° ENE 03:09:42 10° ENE 03:10:08 10° ENE visible
07 Sep 3.2 04:42:17 10° NNW 04:45:56 39° W 04:48:54 14° SSW visible
08 Sep 3.0 04:30:26 10° NNW 04:34:02 43° W 04:34:02 43° W visible
09 Sep 4.2 04:18:35 10° NNW 04:20:23 25° NNW 04:20:23 25° NNW visible
10 Sep 5.2 04:06:44 10° NNW 04:07:14 13° NNW 04:07:14 13° NNW visible
